Location: Unspecified
(49.2170°N, 0.0000°E)
Time: 14:56:52
(UTC+00:00)

Vanguard 1 - Pass Details

Date: 25 June 2021
Orbit: 651 x 3832 km, 34.2° (Epoch: 23 July)

Event Time Altitude Azimuth Distance (km) Brightness Sun altitude
Rises 01:55:59 0° 278° (W) 7,600 14.4 -13.1°
Reaches altitude 10° 02:03:09 10° 267° (W) 6,136 13.8 -12.6°
Maximum altitude 02:15:02 22° 225° (SW) 4,135 12.6 -11.6°
Drops below altitude 10° 02:23:23 10° 180° (S) 4,144 12.8 -10.9°
Sets 02:27:01 0° 165° (SSE) 4,688 13.2 -10.6°
